Voltar ao catálogo

ARIANE 5 R/B

AtivoGTO
NORAD 42693·ROCKET BODY·🇫🇷 France

Lançado May 4, 2017 de Guiana Space Centre

Loading…

TLE

EnvelhecendoSource: Space-Track

Época: Sep 14, 2026, 15:12 UTC

1 42693U 17023C   26257.63346574  .00003719  00000-0  12019-2 0  9992
2 42693   4.1261 336.9442 7125843 234.7914  36.5648  2.47348761 80452

Acompanhe ARIANE 5 R/B em tempo real com AllMySat

Download on the App Store